Home > Weather > Lanzhou > Past weeks

Flag for China Weather for the Past 2 Weeks in Lanzhou, Gansu, China

Now
46 °F

Passing clouds.


Feels Like: 40 °F
Forecast: 12 / 23 °F
Wind: 15 mph from Northeast

Location: Lanzhou / Zhongchuan

Current Time: Feb 11, 2016 at 5:03:39 PM

Latest Report: Feb 11, 2016 at 4:00 PM


Visibility: N/A

Pressure: 29.65 "Hg (24.58 "Hg at 1543m altitude)

Humidity: 29%

Dew point: 16 °F

Location of LanzhouLocation

Historic Weather in Lanzhou — Graph

°F

Lanzhou Temperature Yesterday

Maximum temperature yesterday: 48 °F (at 4:00 PM)
Minimum temperature yesterday: 18 °F (at 8:00 AM)
Average temperature yesterday: 32 °F

High & Low Weather Summary for the Past Weeks

 TemperatureHumidityPressure
High48 °F (Feb 7, 4:00 PM)85% (Feb 4, 7:00 AM)30.51 "Hg (Feb 4, 7:00 AM)
Low-2 °F (Jan 28, 6:00 AM)9% (Feb 8, 4:00 PM)29.68 "Hg (Feb 10, 3:00 PM)
Average19 °F50%30.15 "Hg
* Reported Jan 27 3:00 PM — Feb 11 3:00 PM, Lanzhou, Weather by CustomWeather, © 2016

Note: Actual official high and low records may vary slightly from our data, if they occured in-between our weather recording intervals... More about our weather records

Advertising

Lanzhou Weather History for the Previous 24 Hours

 ConditionsComfort  
Time TempWeatherWind HumidityBarometerVisibility
3:00 PM
Thu, Feb 11
48 °FPassing clouds.8 mph14%29.68 "HgN/A
2:00 PM46 °FPassing clouds.10 mph15%29.68 "HgN/A
1:00 PM43 °FPassing clouds.6 mph22%29.74 "HgN/A
12:00 PM41 °FPassing clouds.3 mph22%29.77 "HgN/A
11:00 AM37 °FPassing clouds.3 mph22%29.77 "HgN/A
10:00 AM30 °FSunny.3 mph31%29.80 "Hg10 mi
9:00 AM18 °FSunny.3 mph49%29.80 "Hg10 mi
8:00 AM19 °FClear.1 mph45%29.77 "Hg10 mi
7:00 AM21 °FClear.6 mph38%29.77 "Hg10 mi
6:00 AM19 °FClear.8 mph42%29.77 "Hg10 mi
5:00 AM18 °FClear.8 mph41%29.80 "Hg10 mi
4:00 AM18 °FClear.8 mph45%29.80 "Hg10 mi
3:00 AM19 °FClear.1 mph45%29.80 "Hg10 mi
2:00 AM19 °FClear.6 mph49%29.83 "Hg10 mi
1:00 AM21 °FClear.6 mph49%29.83 "Hg10 mi
12:00 AM27 °FClear.6 mph54%29.83 "Hg10 mi
11:00 PM
Wed, Feb 10
27 °FClear.6 mph54%29.83 "Hg10 mi
10:00 PM32 °FPassing clouds.3 mph51%29.80 "HgN/A
9:00 PM37 °FClear.1 mph41%29.77 "Hg10 mi
8:00 PM39 °FClear.6 mph39%29.77 "Hg10 mi
7:00 PM41 °FSunny.1 mph28%29.74 "Hg10 mi
6:00 PM45 °FSunny.3 mph27%29.71 "Hg10 mi
5:00 PM48 °FPassing clouds.3 mph23%29.68 "HgN/A
Weather by CustomWeather, © 2016

See weather overviewHow to use our weather pages